Temperature
16 17 17 17 16 17 17 17 17 17 17 17 16 16 16 16 16 16 16 16 16 15 15 15 15 15 15 15 15 15 15 15 15 15 15 14 14 14 14 14 14 14 14
16 16 16 16 16 17 17 17 17 17 17 16 16 16 16 16 16 16 16 16 16 15 15 15 15 15 15 15 15 15 15 15 15 14 14 14 14 14 14 14 14 14 14
16 16 16 16 16 16 16 17 17 17 17 16 16 16 16 16 16 16 16 16 15 15 15 15 15 15 15 15 15 15 15 15 14 14 14 13 13 14 14 13 13 13 14
16 16 16 16 16 16 16 16 16 16 16 16 16 16 16 16 16 16 16 16 15 15 15 15 15 15 15 15 15 15 15 14 14 13 13 13 13 13 13 13 13 13 13
15 16 16 16 16 16 16 16 16 16 16 16 16 16 16 16 16 16 16 15 15 15 15 15 15 15 15 15 15 15 14 14 13 13 13 13 13 13 13 13 13 13 13
15 15 15 15 16 16 16 16 16 16 16 16 16 16 16 16 16 16 16 15 15 15 15 15 15 15 15 15 15 14 14 13 13 13 13 13 13 13 13 13 13 13 13
14 15 15 15 15 15 15 15 15 16 16 16 16 16 16 16 16 16 16 15 15 15 15 15 15 15 15 15 15 14 14 13 13 13 12 13 13 13 13 12 12 13 12
14 14 14 15 15 15 15 15 15 15 15 15 15 15 15 16 15 15 15 15 15 15 15 15 15 15 15 15 14 14 14 13 13 12 12 12 12 12 12 12 12 12 12
14 14 14 14 14 15 15 15 15 15 15 15 15 15 15 15 15 15 15 15 15 15 15 15 15 15 14 14 14 14 13 13 13 12 12 12 12 12 12 12 12 12 12
13 13 13 13 14 14 14 14 14 14 14 15 15 15 15 15 15 15 15 15 15 15 14 14 14 14 14 14 14 13 13 13 12 12 12 12 12 12 12 12 12 12 12
13 13 13 13 13 13 14 14 14 14 14 14 14 15 15 15 15 14 14 14 14 14 14 14 14 14 14 13 13 13 13 12 12 12 12 12 12 12 11 11 11 11 11
12 12 12 13 13 13 13 13 13 14 14 14 14 14 14 14 14 14 14 14 14 14 14 13 13 13 13 13 13 13 12 12 12 12 12 12 12 11 11 11 11 11 11
12 12 12 12 12 13 13 13 13 13 13 13 14 14 14 14 14 14 14 14 13 13 13 13 13 13 13 13 13 12 12 12 12 12 12 12 11 11 11 11 11 11 11
11 12 12 12 12 12 12 12 12 13 13 13 13 13 13 13 13 13 13 13 13 13 13 13 13 13 12 12 12 12 12 11 11 12 11 11 11 11 11 11 11 10 10
11 11 11 11 12 12 12 12 12 12 12 12 13 13 13 13 13 13 13 13 13 13 13 13 12 12 12 12 12 12 12 11 11 11 11 11 11 11 11 11 10 10 10
11 11 11 11 11 11 11 11 11 11 12 12 12 12 13 13 13 13 13 13 13 13 12 12 12 12 12 12 12 11 11 11 11 11 11 11 11 11 11 10 10 10 10
10 10 10 11 11 11 11 11 11 11 11 11 12 12 12 12 12 12 12 12 12 12 12 12 12 12 12 12 11 11 11 11 11 11 11 10 10 10 10 10 10 10 9
10 10 10 10 10 10 10 10 11 11 11 11 11 11 12 12 12 12 12 12 12 12 12 12 12 12 11 11 11 11 11 11 11 10 10 10 10 10 10 10 10 9 9
9 9 9 10 10 10 10 10 10 10 10 10 11 11 11 11 11 11 11 11 12 12 11 11 11 11 11 11 11 11 11 11 10 10 10 10 10 10 9 9 9 9 9
9 9 9 9 9 9 9 10 10 10 10 10 10 10 11 11 11 11 11 11 11 11 11 11 11 11 11 11 11 11 11 10 10 10 10 10 9 9 9 9 9 9 9
9 9 9 9 9 9 9 9 9 9 9 10 10 10 10 10 11 11 11 11 11 11 11 11 11 11 10 10 10 10 10 10 9 9 9 9 9 9 9 8 8 8 8
8 8 8 9 9 9 9 9 9 9 9 9 9 9 9 10 10 10 10 10 10 10 10 10 10 10 10 10 10 10 9 9 9 9 9 9 9 8 8 8 8 8 8
8 8 8 8 8 8 8 8 8 8 8 9 9 9 9 9 9 9 10 10 10 10 10 10 10 10 10 10 9 9 9 8 8 8 8 8 8 8 8 8 8 8 7
7 7 7 7 7 8 8 8 8 8 8 8 8 8 8 9 9 9 9 9 9 9 9 10 10 10 9 9 9 9 8 8 8 7 8 8 8 8 8 8 7 7 7
7 7 7 7 7 7 7 7 7 7 7 7 7 7 8 8 8 8 8 9 9 9 9 9 9 9 9 9 8 8 8 8 7 7 7 7 7 8 7 7 7 7 7
7 6 6 6 7 7 7 7 7 7 7 7 7 7 7 8 8 8 8 8 8 8 8 8 8 8 8 8 8 8 7 7 7 7 7 7 7 7 7 7 7 6 6
Wind_Speed
6 7 8 7 7 7 8 8 9 10 10 9 10 10 10 10 10 11 11 11 11 10 11 11 12 12 12 12 12 12 12 11 11 11 11 11 11 12 12 12 12 11 12
7 9 8 8 7 7 8 8 9 9 10 9 9 10 10 10 10 10 10 10 10 10 10 11 11 12 11 11 11 11 10 10 10 9 9 10 12 12 12 12 12 10 11
8 9 8 8 8 8 8 8 8 8 9 9 9 9 9 10 9 10 10 10 10 10 10 11 11 11 11 11 10 10 9 8 7 7 8 9 10 11 12 12 11 10 10
9 9 8 8 8 8 8 8 8 8 8 9 9 9 9 9 9 9 9 9 9 10 10 10 11 10 10 10 10 9 8 6 5 6 8 9 10 10 11 11 10 10 10
8 9 9 9 8 8 8 8 8 8 8 8 9 9 8 9 8 9 9 9 9 9 9 10 10 10 10 10 9 8 7 5 6 6 9 11 10 10 10 10 10 9 9
8 9 9 9 8 8 8 8 8 8 8 8 8 9 8 8 8 8 9 9 9 9 9 9 9 9 9 9 8 7 5 5 5 7 9 11 9 9 9 9 9 9 9
7 9 9 9 8 8 8 8 8 9 9 8 8 8 8 8 8 8 9 9 8 8 8 8 8 8 9 8 7 5 4 5 5 8 10 10 9 9 8 8 8 8 8
7 8 9 8 9 8 8 8 8 9 9 9 8 7 7 8 8 8 9 9 8 8 8 8 8 8 7 7 6 4 4 5 5 7 10 10 9 8 7 8 8 7 8
7 7 7 8 8 8 8 8 8 8 9 9 8 7 6 6 7 7 8 8 8 8 7 7 7 7 6 6 4 3 4 5 5 7 8 9 8 8 8 7 7 7 7
6 6 6 7 7 7 7 8 8 8 8 8 8 7 6 6 6 7 7 7 7 7 6 6 5 6 6 5 3 1 3 4 5 8 8 8 8 7 7 8 7 7 8
5 5 5 6 6 6 6 6 7 7 7 7 7 7 5 5 5 5 6 7 7 6 6 5 4 5 5 4 3 0 2 2 5 8 8 7 7 7 7 7 7 7 8
4 4 4 5 5 5 5 5 5 5 5 5 5 5 4 4 4 4 6 7 6 6 5 4 4 4 3 3 3 2 1 2 5 7 7 7 6 6 6 6 7 7 8
4 3 4 4 4 4 4 4 3 4 3 4 4 4 4 5 4 4 4 4 4 4 2 3 3 2 2 2 2 1 0 2 5 7 7 6 5 6 6 6 7 7 8
4 3 3 4 4 3 3 3 3 3 3 3 3 4 4 3 3 2 2 3 3 2 1 0 1 2 2 2 2 1 1 3 5 6 6 6 5 5 5 6 7 7 8
4 3 3 3 3 3 2 2 3 2 3 3 4 4 4 3 2 2 2 3 3 2 1 1 1 1 1 2 1 1 1 3 4 5 5 5 4 3 4 5 6 7 8
3 3 3 3 3 3 2 2 3 3 4 4 4 4 5 5 3 3 3 2 2 2 1 1 2 1 1 1 1 1 1 3 4 5 5 4 3 3 3 5 6 7 8
4 4 4 3 4 3 3 3 3 4 4 4 4 5 5 5 4 4 2 2 2 2 2 2 3 2 1 1 1 1 2 2 3 4 4 3 3 3 3 4 6 7 8
4 4 3 3 4 3 2 2 3 4 4 4 5 5 5 5 5 4 3 2 3 3 3 1 1 1 1 1 1 1 1 2 2 3 3 3 3 3 2 3 5 6 7
4 4 3 3 3 3 3 2 3 4 4 5 5 5 5 5 5 5 3 3 4 3 2 1 1 1 1 1 1 0 1 1 1 2 2 3 3 3 3 3 3 5 6
4 4 4 3 3 3 3 2 3 3 4 5 5 5 5 5 6 5 3 4 4 2 1 1 1 1 1 1 0 1 0 1 1 2 1 2 2 2 3 2 2 3 5
4 4 4 3 3 3 2 1 2 2 2 2 4 5 5 5 5 5 3 3 2 1 1 1 1 1 1 1 1 1 1 0 1 1 1 1 0 1 2 2 2 3 4
3 3 3 3 3 3 2 1 1 1 2 2 3 4 5 5 5 4 3 2 2 1 2 2 2 1 1 1 1 1 0 1 1 0 0 0 1 1 2 2 2 3 3
3 3 3 2 3 2 3 2 2 3 3 3 3 2 4 5 4 4 3 3 2 2 1 1 2 1 0 0 2 2 1 1 1 1 1 0 0 1 2 2 3 3 3
2 3 3 3 3 2 3 3 3 3 2 1 1 1 2 4 4 4 4 3 3 2 2 1 1 1 1 1 0 1 1 1 1 1 2 1 1 1 1 2 3 3 2
2 3 2 2 3 3 3 3 3 2 2 2 2 2 2 3 3 3 3 3 2 2 2 2 1 1 1 1 0 0 0 1 0 1 2 2 2 2 1 2 2 2 3
3 3 2 2 2 2 3 3 3 3 2 2 2 2 1 1 2 3 3 2 2 2 2 2 1 1 1 1 1 1 1 0 1 0 2 3 3 3 2 1 1 1 3
Wind_Direction
103 107 108 99 99 102 110 114 117 116 114 110 106 104 102 102 100 97 95 94 94 93 94 92 88 85 81 76 75 74 73 73 73 71 69 68 67 66 61 58 55 54 55
110 110 108 98 97 104 107 108 115 120 118 115 112 110 108 107 104 102 99 96 94 94 93 93 89 86 83 79 76 75 75 74 74 71 70 72 69 66 60 57 56 55 53
102 106 104 93 90 99 106 106 106 119 122 121 118 117 112 109 106 103 102 99 96 93 91 90 88 87 84 80 78 78 75 72 67 68 70 75 70 65 61 58 57 54 50
98 102 102 91 87 93 103 103 102 109 122 124 123 120 114 111 110 107 105 102 98 93 89 90 89 89 88 84 81 77 72 61 51 58 65 72 70 65 59 56 55 53 50
97 99 98 93 88 88 96 105 103 100 110 124 126 123 117 113 112 110 106 102 98 95 91 91 92 92 91 87 83 77 65 44 40 56 63 71 70 66 60 56 53 50 48
102 98 101 96 90 88 91 100 102 100 96 108 123 124 122 119 116 114 111 105 101 97 95 94 95 93 92 88 84 76 55 32 28 61 67 71 70 65 59 55 53 49 45
102 98 105 100 92 89 88 91 97 98 96 93 105 121 125 122 120 120 115 109 106 102 100 98 98 97 95 91 85 72 40 18 48 66 70 69 69 63 56 53 48 44 41
98 99 105 102 95 90 86 88 93 97 94 90 91 108 123 128 124 122 119 114 111 107 105 103 103 102 99 94 87 66 22 7 40 71 74 71 67 59 53 49 44 39 35
95 99 100 102 99 93 86 87 88 96 96 92 87 91 108 125 128 125 121 118 114 112 108 105 107 107 105 102 94 56 2 357 30 65 71 71 63 56 53 48 40 33 26
94 94 95 92 93 93 89 88 89 92 97 94 89 85 91 110 127 126 118 121 120 117 114 113 117 117 117 117 115 49 338 0 54 69 70 69 62 57 53 47 39 31 23
95 98 87 83 80 83 90 91 92 95 99 96 92 87 88 99 112 117 122 120 125 122 120 125 135 137 134 142 152 195 335 35 76 82 76 74 63 54 50 42 34 27 21
102 102 96 82 74 74 80 86 90 90 96 99 92 87 70 74 92 115 130 128 129 132 133 144 154 158 152 155 170 191 324 45 87 92 87 82 61 50 43 35 28 22 16
103 86 87 92 76 66 66 74 79 83 84 90 89 78 73 79 85 104 122 130 136 135 138 161 174 175 141 121 139 152 63 60 87 93 98 88 67 46 35 29 22 16 11
90 80 80 83 84 74 70 67 79 78 70 75 80 78 62 58 58 66 101 115 112 98 63 67 182 128 124 120 111 102 70 73 86 95 105 95 72 47 32 23 16 14 12
90 70 58 74 83 70 69 59 67 70 68 72 71 73 72 65 65 58 60 77 84 70 42 4 39 97 108 95 102 89 64 80 92 99 110 108 89 55 30 19 13 8 7
95 74 61 51 60 58 47 57 60 64 76 80 67 64 70 65 54 57 68 57 65 66 32 16 32 45 67 68 74 70 71 72 82 89 106 117 111 70 28 16 9 8 8
104 84 63 54 47 51 41 42 50 58 64 69 69 67 67 63 57 56 67 70 47 48 54 45 39 36 59 56 56 68 65 70 80 84 87 96 107 89 49 23 13 8 3
101 89 68 54 51 51 52 48 51 58 57 58 69 66 66 64 56 56 53 65 44 40 39 67 100 62 57 53 31 27 75 77 80 85 91 77 79 81 68 23 10 4 359
106 100 81 61 56 50 48 62 61 62 61 56 56 60 58 61 58 57 53 48 50 51 42 31 82 94 86 55 25 1 52 93 112 98 94 80 68 63 61 32 7 360 355
111 107 99 75 54 52 46 64 60 53 57 59 51 48 53 52 50 50 54 47 49 76 70 40 27 74 105 102 22 347 267 177 120 103 95 84 75 50 35 17 358 338 340
103 106 107 92 66 63 60 66 74 55 55 57 52 48 50 55 49 47 46 47 40 94 108 102 44 81 94 94 71 15 321 204 112 105 93 67 60 45 16 0 357 354 343
108 109 108 104 93 79 68 55 109 101 82 70 55 51 49 55 53 48 44 42 22 56 84 86 91 59 72 82 97 101 2 338 334 325 105 104 360 15 360 354 357 354 343
108 104 94 98 92 79 71 70 74 63 56 53 51 48 47 56 53 47 38 35 20 32 76 84 94 98 149 77 85 104 116 231 304 276 252 240 347 2 339 338 335 332 343
111 103 96 91 82 73 83 91 92 89 80 48 59 57 42 58 54 48 44 41 31 18 15 48 76 68 124 171 357 35 113 141 149 294 285 270 282 304 319 327 323 321 351
105 104 106 101 87 76 75 92 98 87 63 63 64 62 48 49 52 49 46 42 33 13 3 360 41 59 90 142 135 37 353 340 149 204 279 293 299 270 266 290 303 333 347
98 99 105 110 94 84 75 80 87 88 74 76 71 60 42 45 39 38 45 43 31 22 14 359 6 39 67 88 73 89 142 173 263 266 267 286 291 282 276 268 295 322 335
Height
1511 1512 1514 1515 1516 1517 1518 1519 1520 1521 1522 1523 1524 1525 1525 1526 1527 1528 1528 1529 1529 1530 1530 1531 1531 1531 1531 1531 1531 1531 1531 1532 1532 1532 1532 1532 1532 1532 1532 1532 1532 1532 1532
1510 1511 1513 1514 1515 1517 1518 1519 1520 1521 1522 1524 1524 1525 1526 1527 1527 1528 1529 1529 1530 1530 1531 1531 1531 1531 1532 1532 1532 1532 1532 1532 1532 1533 1533 1533 1533 1533 1533 1532 1532 1532 1532
1509 1511 1512 1514 1515 1516 1518 1519 1520 1521 1523 1524 1525 1525 1526 1527 1528 1528 1529 1530 1530 1531 1531 1532 1532 1532 1532 1532 1532 1533 1533 1533 1533 1534 1534 1533 1533 1533 1533 1533 1533 1532 1532
1509 1510 1512 1513 1515 1516 1517 1519 1520 1521 1523 1524 1525 1526 1526 1527 1528 1529 1529 1530 1530 1531 1531 1532 1532 1532 1532 1533 1533 1533 1533 1534 1534 1534 1534 1534 1534 1534 1533 1533 1533 1533 1532
1509 1511 1512 1513 1514 1516 1517 1518 1520 1521 1522 1524 1525 1526 1526 1527 1528 1529 1529 1530 1530 1531 1531 1532 1532 1532 1533 1533 1533 1534 1534 1534 1535 1535 1535 1535 1534 1534 1534 1533 1533 1533 1532
1510 1511 1512 1513 1514 1515 1516 1518 1519 1520 1522 1523 1524 1525 1526 1527 1528 1528 1529 1529 1530 1531 1531 1532 1532 1532 1533 1533 1533 1534 1534 1535 1535 1535 1535 1535 1535 1535 1534 1534 1533 1533 1532
1510 1511 1512 1513 1514 1515 1516 1517 1518 1520 1521 1522 1524 1525 1526 1527 1527 1528 1529 1529 1530 1531 1531 1531 1532 1532 1533 1533 1534 1534 1535 1535 1535 1535 1535 1535 1535 1535 1534 1534 1533 1533 1532
1509 1510 1512 1513 1514 1514 1515 1516 1518 1519 1520 1521 1523 1524 1525 1526 1527 1528 1528 1529 1530 1530 1531 1531 1532 1532 1533 1533 1534 1535 1535 1535 1536 1536 1535 1535 1535 1535 1534 1534 1533 1533 1532
1509 1510 1511 1512 1513 1514 1515 1516 1517 1518 1519 1521 1522 1523 1524 1525 1526 1527 1528 1529 1529 1530 1531 1531 1532 1532 1533 1534 1534 1535 1535 1536 1536 1536 1535 1535 1535 1535 1534 1534 1533 1533 1532
1509 1510 1510 1511 1512 1513 1514 1515 1516 1517 1519 1520 1521 1522 1523 1524 1525 1526 1527 1528 1529 1530 1531 1531 1532 1532 1533 1533 1534 1535 1535 1536 1536 1536 1535 1535 1535 1535 1534 1533 1533 1532 1531
1509 1509 1510 1511 1511 1512 1513 1514 1515 1516 1517 1519 1520 1521 1522 1523 1524 1525 1526 1527 1528 1529 1530 1531 1532 1532 1533 1533 1534 1535 1535 1535 1535 1535 1535 1535 1535 1534 1534 1533 1532 1531 1530
1507 1508 1509 1510 1510 1511 1512 1513 1514 1515 1516 1517 1518 1519 1520 1521 1522 1523 1524 1526 1527 1528 1529 1530 1531 1532 1532 1533 1533 1534 1534 1535 1535 1535 1535 1535 1534 1534 1533 1532 1531 1530 1529
1506 1507 1508 1509 1510 1510 1511 1512 1512 1513 1515 1516 1517 1518 1519 1520 1522 1522 1523 1524 1526 1527 1528 1529 1530 1531 1532 1532 1533 1533 1534 1534 1534 1534 1534 1534 1533 1533 1532 1531 1530 1529 1528
1505 1506 1507 1508 1509 1509 1510 1511 1511 1512 1513 1514 1516 1517 1518 1519 1520 1521 1521 1522 1524 1525 1526 1527 1528 1530 1531 1531 1532 1533 1533 1533 1533 1533 1533 1533 1532 1532 1531 1530 1529 1528 1527
1503 1504 1506 1507 1508 1508 1509 1509 1510 1511 1512 1513 1514 1515 1517 1517 1518 1520 1520 1521 1522 1524 1525 1526 1527 1528 1529 1530 1531 1532 1532 1532 1532 1532 1532 1532 1531 1531 1530 1529 1528 1527 1526
1502 1503 1504 1505 1506 1507 1508 1508 1509 1510 1511 1511 1513 1514 1515 1516 1517 1518 1519 1520 1521 1522 1524 1525 1526 1527 1528 1529 1530 1530 1531 1531 1531 1531 1531 1530 1530 1529 1529 1528 1527 1525 1524
1501 1502 1503 1504 1505 1506 1506 1507 1508 1508 1509 1510 1511 1512 1513 1514 1516 1517 1517 1519 1520 1521 1522 1524 1525 1526 1527 1528 1528 1529 1529 1530 1530 1530 1530 1529 1529 1528 1527 1526 1525 1524 1522
1500 1501 1502 1503 1504 1505 1505 1506 1507 1507 1508 1509 1509 1511 1512 1513 1514 1515 1516 1517 1518 1519 1521 1522 1523 1524 1525 1526 1527 1527 1528 1528 1528 1528 1528 1528 1527 1526 1525 1524 1523 1522 1520
1499 1499 1501 1502 1503 1504 1504 1505 1506 1506 1507 1508 1508 1509 1511 1512 1513 1513 1515 1516 1517 1518 1519 1521 1522 1522 1523 1524 1525 1526 1526 1526 1527 1527 1527 1526 1526 1525 1524 1523 1521 1520 1518
1498 1499 1500 1501 1502 1503 1503 1504 1505 1505 1506 1507 1507 1508 1509 1510 1511 1512 1513 1514 1516 1517 1518 1519 1520 1520 1522 1523 1523 1524 1524 1525 1525 1525 1525 1524 1524 1523 1522 1521 1519 1518 1517
1497 1498 1499 1500 1501 1501 1502 1502 1502 1503 1504 1505 1506 1507 1508 1509 1509 1510 1511 1512 1513 1515 1516 1517 1518 1519 1520 1521 1521 1521 1522 1523 1523 1523 1523 1522 1522 1521 1520 1519 1518 1516 1515
1496 1497 1497 1498 1499 1500 1500 1500 1501 1502 1503 1504 1505 1506 1507 1508 1508 1509 1509 1510 1512 1513 1514 1515 1516 1517 1517 1518 1519 1519 1520 1521 1521 1521 1520 1520 1519 1519 1518 1517 1516 1514 1512
1495 1496 1497 1497 1498 1498 1499 1500 1500 1501 1502 1503 1504 1504 1506 1507 1508 1508 1508 1509 1510 1511 1512 1513 1514 1515 1515 1516 1517 1518 1518 1518 1518 1518 1518 1518 1517 1516 1516 1515 1513 1512 1510
1495 1495 1496 1496 1497 1497 1498 1499 1498 1499 1501 1502 1502 1503 1504 1505 1506 1507 1507 1508 1509 1509 1510 1511 1511 1512 1513 1513 1514 1515 1517 1516 1516 1515 1515 1515 1514 1514 1513 1512 1511 1510 1508
1494 1494 1495 1495 1496 1496 1497 1497 1498 1498 1500 1500 1501 1502 1503 1504 1505 1506 1506 1506 1507 1508 1508 1509 1509 1510 1510 1511 1512 1512 1513 1514 1514 1513 1512 1511 1511 1511 1510 1509 1508 1507 1506
1493 1493 1494 1494 1495 1496 1496 1496 1497 1497 1498 1499 1499 1500 1501 1502 1503 1504 1505 1505 1505 1506 1506 1507 1507 1508 1508 1509 1510 1510 1510 1511 1511 1511 1510 1508 1507 1507 1507 1506 1506 1505 1503